Weather in Pokrovka

Russia / Primorsky Krai     46°00′33″N   134°09′30″E
temp.,
°C
wind,
m/s
gust,
m/s
humid.,
%
clouds,
%
prec.,
mm/h
press.,
hPa
HPBL,
m
17 june, thu
thu1701:00+17wsw11962 0.0 100614
04:00+13wsw229643 0.0 100734
07:00+16ese1194100 0.0 1006106
10:00+21s3567100 0.0 1005617
13:00+26sw3552100 0.0 10041222
16:00+24w5671100 0.0 1003624
19:00+20w4883100 0.0 1003375
22:00+16ssw1192100 0.0 100311
18 june, fri
fri1801:00+15se0093100 0.0 100211
04:00+15w2494100 0.0 100296
07:00+15w2291100 0.0 1002119
10:00+19se3477100 0.0 1000503
13:00+23s3556100 0.0 10001494
16:00+18w6987100 0.5 999469
19:00+15nw0198100 2.9 100139
22:00+15se2998100 5.8 1002448
19 june, sat
sat1901:00+14ese2597100 0.6 1002128
04:00+14e2397100 0.7 100287
07:00+14e2497100 0.2 1002124
10:00+14e2498100 4.2 1003227
13:00+14ene3595100 2.4 1004251
16:00+16se2487100 2.4 1002291
19:00+16ene2483100 0.0 1003147
22:00+14e2384100 0.0 100336
20 june, sun
sun2001:00+12e2282100 0.0 100434
04:00+12e1180100 0.0 100416
07:00+12e1279100 0.0 100591
10:00+16ese356194 0.0 1005722
13:00+20ese3448100 0.0 10051661
16:00+20ene3459100 0.0 1004810
19:00+17sw2575100 0.1 1005205
22:00+13sw2393100 0.1 100849
21 june, mon
mon2101:00+11sw119498 0.0 100910
04:00+10e0094100 0.0 101010
07:00+12e1186100 0.0 1011111
10:00+17e125984 0.0 1011620
13:00+20sse025042 0.0 10101227
16:00+21nw1251100 0.0 1009975
19:00+20nnw36705 0.0 1009236
22:00+14nw128149 0.0 101011